Cloud_Cover
0 0 0 0 0 0 0 0 27 0 3 3 4 5 5 5 5 2 5 5 5 6 70 100 33 77 13 6 11 86 3 17 56 22 10 35 32 5 55 28 100 88 76 5
5 0 0 0 0 0 0 0 0 0 0 3 5 1 0 4 5 2 4 5 5 11 28 9 5 5 1 0 2 4 3 9 4 2 25 73 82 59 11 5 6 5 15 4
0 0 0 0 0 0 0 0 11 0 0 0 2 0 0 0 0 0 0 0 2 2 1 2 5 3 4 11 5 5 10 5 5 3 5 5 20 5 5 5 5 3 2 0
14 0 2 0 0 0 0 0 0 0 1 0 0 0 0 0 0 0 0 0 0 0 0 0 0 0 0 0 0 0 1 3 1 0 0 0 0 0 0 0 0 0 0 0
5 70 7 5 0 0 0 0 0 0 0 0 0 0 0 0 0 0 0 0 0 0 0 0 0 0 0 0 0 2 4 2 0 4 0 0 0 0 0 0 0 0 0 0
3 39 88 0 5 4 0 1 0 0 0 0 0 0 0 0 0 0 0 0 0 0 0 1 0 0 0 0 1 1 0 0 1 4 1 1 1 2 3 5 5 4 2 3
39 5 100 4 61 5 16 0 8 2 0 0 0 0 0 0 0 0 0 4 3 2 5 5 5 5 5 5 5 5 5 5 5 18 28 39 32 5 1 0 0 0 0 0
8 5 13 100 99 82 54 79 46 5 22 5 0 0 2 4 4 0 0 0 1 2 5 5 5 7 36 16 10 5 5 5 4 4 1 0 0 0 0 0 0 0 0 0
12 5 17 13 5 88 100 100 93 54 99 100 36 2 5 1 0 0 3 1 0 0 0 0 0 0 0 0 0 0 3 3 3 1 0 2 4 2 0 0 0 4 5 5
91 8 5 17 26 29 50 74 99 100 100 100 96 8 48 34 2 1 0 0 0 2 0 4 0 0 0 0 0 0 2 5 5 5 5 10 74 99 100 77 14 5 5 5
96 22 9 5 5 5 5 9 63 100 100 100 100 100 100 98 82 5 1 2 4 2 5 5 1 0 0 0 0 0 1 4 3 5 5 5 10 74 100 100 100 100 100 58
100 50 6 5 7 5 5 9 27 5 4 52 2 40 99 100 100 90 12 5 5 5 17 5 5 5 5 5 5 5 22 96 92 94 100 100 90 87 71 100 13 100 100 100
100 100 90 18 5 5 69 15 5 40 5 5 6 80 9 93 100 100 100 100 86 45 42 10 5 18 14 9 5 5 6 53 64 52 98 100 100 98 98 100 49 5 7 41
100 100 100 100 100 59 23 99 100 87 1 4 4 6 9 36 25 99 93 100 100 100 100 100 98 14 9 23 41 5 64 100 45 5 5 5 3 6 25 3 5 29 100 76
100 100 100 100 100 100 100 100 100 100 99 67 41 5 6 9 12 5 23 100 63 96 92 100 99 100 100 100 56 5 5 5 5 13 86 99 99 96 4 5 5 12 50 64
100 100 100 100 100 100 100 100 100 100 100 100 100 100 71 51 9 5 5 54 48 24 67 28 6 6 100 100 100 100 92 32 7 5 8 100 100 100 100 99 62 68 6 12
100 100 100 100 100 100 100 100 100 67 85 100 100 100 100 100 89 25 28 4 4 3 8 72 45 27 32 100 21 96 100 100 100 100 76 6 43 77 100 100 100 100 100 100
100 100 100 100 100 100 100 100 100 100 100 100 100 100 100 100 100 100 73 66 100 98 59 72 91 84 100 100 100 97 61 100 100 100 100 100 99 23 10 37 42 97 100 100
100 100 100 100 100 100 100 100 100 100 100 100 100 100 100 100 100 100 82 99 100 100 100 100 100 98 98 5 41 25 4 6 27 99 100 100 100 100 100 46 47 56 100 100
100 100 100 100 100 100 100 100 100 100 100 100 100 100 100 100 100 100 100 100 100 100 100 100 100 100 100 67 5 0 0 0 0 4 14 11 91 100 100 100 100 100 100 100
100 100 100 100 100 100 100 100 100 100 100 100 100 99 100 100 100 100 100 100 100 100 100 100 100 100 100 100 15 1 0 0 1 5 2 7 26 81 83 100 100 100 95 100
100 96 100 73 73 98 100 97 100 100 100 100 95 93 100 84 98 69 71 100 100 100 100 100 100 100 100 100 97 12 5 3 0 0 1 5 5 4 12 86 100 100 100 100
100 100 100 100 88 100 100 100 100 100 100 100 100 92 74 74 76 50 84 89 75 15 60 100 100 100 94 8 4 26 10 5 5 5 5 5 5 5 5 22 100 100 100 100
100 100 100 100 98 100 100 100 100 100 100 100 100 100 100 100 93 90 100 83 84 86 82 66 26 36 5 5 29 44 12 46 98 76 83 99 100 99 47 61 100 100 100 100
99 100 92 90 99 100 100 100 100 100 100 100 94 100 100 76 100 99 96 99 93 80 100 86 18 39 58 100 100 100 95 96 82 64 39 45 95 100 93 94 100 100 100 100
100 100 100 100 91 86 98 100 100 91 94 100 94 100 100 75 69 93 58 79 19 42 100 94 48 99 99 98 100 100 94 92 93 89 71 97 100 100 99 91 100 100 100 100
100 100 99 85 11 35 6 9 26 93 50 99 92 72 12 92 100 88 23 6 5 47 11 18 99 38 18 22 100 100 100 100 100 100 100 100 100 100 100 100 100 100 100 100